Wind_Speed
25 25 26 27 28 27 26 24 24 24 23 23 23 23 22 21 21 21 20 18 16 17 17 16 16 15 15 14 14 14 14 14 14 13 13 12 12 12 11 10 9 9 9 9 8 8 7 7 7
26 27 28 28 29 28 27 25 26 26 26 26 26 25 25 24 24 23 22 21 19 18 18 18 18 17 16 16 16 16 16 16 16 15 15 14 14 13 12 11 11 11 10 10 9 9 9 9 8
28 29 30 30 29 29 27 27 27 27 28 28 27 28 27 26 25 24 24 23 22 20 20 19 19 19 18 18 17 17 17 16 16 16 16 15 16 15 14 13 13 12 12 11 11 11 11 10 10
30 30 31 31 30 29 28 28 29 29 29 29 29 30 29 28 27 26 25 24 23 22 22 21 21 20 20 20 19 18 18 18 18 17 17 17 16 16 15 15 14 14 14 13 13 13 13 13 12
31 32 32 32 31 30 30 29 30 30 30 30 30 31 30 30 29 28 27 26 25 24 24 23 22 22 22 22 21 20 20 20 20 19 19 18 18 18 17 16 16 16 16 15 16 15 15 14 14
32 33 33 33 32 31 32 31 31 31 32 31 32 33 31 31 30 30 29 28 27 26 26 25 25 24 24 23 23 22 22 22 21 21 21 20 20 19 19 18 18 18 17 17 18 18 17 17 16
33 33 34 33 32 32 32 32 32 33 34 33 33 34 33 31 31 31 31 30 30 28 27 27 27 27 26 26 25 24 24 24 24 23 23 22 22 22 21 20 19 19 19 18 18 19 19 19 18
34 34 34 33 33 34 34 33 34 35 35 34 35 35 33 33 32 32 32 31 31 31 30 29 29 29 28 28 28 27 26 26 26 26 25 24 24 23 22 22 21 21 20 20 20 20 20 20 20
34 35 34 33 34 35 35 35 35 35 36 35 35 35 34 35 34 34 33 33 33 33 32 32 31 31 30 30 30 29 29 28 28 28 27 27 26 25 24 24 23 23 22 22 21 21 22 22 22
35 35 34 34 36 37 36 37 37 37 37 36 36 36 36 37 36 35 35 35 34 34 34 34 34 33 32 32 31 31 31 31 30 30 29 29 28 27 26 26 25 25 24 23 23 23 24 24 24
36 36 35 35 36 38 38 38 38 39 38 38 38 37 38 38 37 37 37 37 36 36 36 36 35 35 35 34 33 33 33 33 33 32 32 31 30 29 29 28 27 27 26 25 25 25 25 25 25
36 36 36 36 37 38 39 39 40 40 40 40 40 39 39 38 37 38 38 39 39 38 38 37 37 37 37 36 36 35 35 35 35 34 34 33 32 31 30 30 30 29 28 28 27 27 27 27 27
37 37 37 37 38 39 40 40 41 41 41 42 42 42 42 41 40 40 41 41 41 41 40 40 39 39 39 39 38 38 37 36 36 35 35 35 34 34 32 32 32 32 31 30 29 29 29 28 28
38 38 38 38 39 40 41 41 42 41 42 43 43 44 44 44 43 43 43 43 43 43 42 42 42 42 41 40 40 39 39 39 38 37 36 36 35 35 34 33 33 33 33 33 32 31 30 30 30
39 40 40 39 40 41 43 43 42 41 42 43 44 44 45 45 45 44 44 45 45 45 44 44 44 44 42 42 40 40 40 40 40 39 38 38 37 36 36 35 35 34 34 34 34 33 33 32 32
40 41 42 41 42 43 44 44 41 42 44 44 45 45 45 45 45 45 45 46 46 46 46 46 45 45 45 44 42 41 41 42 41 41 40 40 39 38 37 37 36 36 36 35 35 35 35 34 33
41 41 41 41 42 43 45 44 42 43 44 45 45 45 45 46 46 46 46 46 47 47 47 47 47 47 46 46 45 44 43 43 43 43 42 41 40 40 39 39 38 38 37 37 37 36 36 36 35
40 40 40 41 41 43 44 44 42 43 44 44 45 45 46 46 46 46 46 46 47 47 47 48 48 47 46 46 45 45 44 44 44 43 43 42 42 41 41 41 40 40 40 39 38 38 37 37 37
37 38 38 39 39 41 42 43 43 43 43 44 44 44 45 45 45 46 46 46 46 47 47 47 47 47 47 47 45 45 45 44 44 43 43 43 43 42 42 42 42 43 42 40 40 39 39 38 38
35 36 36 38 38 39 40 41 41 42 43 44 44 44 44 44 44 45 45 45 45 46 47 47 47 47 47 47 46 46 45 45 44 44 44 43 42 42 42 42 42 42 42 42 42 41 41 40 39
35 35 35 36 37 38 39 39 39 39 41 42 43 43 43 43 43 43 44 45 45 45 46 47 47 47 47 47 47 46 45 45 45 45 45 44 43 43 43 43 43 43 43 42 42 41 41 41 41
33 34 35 35 36 37 38 39 36 37 38 38 39 40 41 42 43 43 44 44 45 45 46 47 47 46 46 46 46 46 45 45 45 45 44 44 44 43 44 44 43 43 43 43 42 42 42 42 42
31 31 32 33 34 35 35 37 35 36 37 36 37 38 40 41 42 43 43 43 44 45 46 46 46 46 46 47 46 46 45 45 45 45 45 45 45 44 44 44 44 43 44 44 43 43 42 42 43
30 30 31 31 32 33 32 35 35 34 35 35 37 38 38 39 40 41 42 43 44 45 46 46 46 47 47 46 46 46 46 45 46 46 45 45 44 44 44 44 44 44 44 44 44 44 43 43 43
28 29 30 30 31 32 31 33 33 33 33 34 35 35 36 37 38 40 41 41 42 44 45 46 46 47 47 46 45 46 47 47 47 46 46 45 45 44 44 44 44 44 44 44 44 44 44 43 44
27 28 29 30 31 31 30 32 31 31 31 32 33 34 34 36 38 39 41 42 43 44 45 45 46 47 47 45 45 45 46 47 47 47 46 45 45 44 44 43 44 44 44 44 44 44 43 43 43
26 27 28 29 30 31 30 29 30 30 30 31 33 34 35 36 37 38 39 40 42 43 45 46 47 47 47 46 46 46 47 47 47 47 46 45 45 44 44 44 44 44 44 44 43 44 43 43 42
25 25 26 28 29 30 30 27 27 29 30 31 32 33 34 35 36 36 36 37 39 42 43 45 46 46 46 46 46 46 46 46 47 47 46 45 45 46 45 44 44 44 44 44 43 43 42 42 43
24 24 25 26 27 29 29 26 26 28 29 30 31 32 33 34 34 34 34 35 36 38 40 40 42 43 44 45 45 46 47 46 47 47 46 46 46 46 45 45 45 44 44 44 43 43 43 43 43
23 23 24 25 26 27 29 27 26 27 28 29 30 31 31 32 32 32 32 33 34 36 37 38 40 41 42 43 44 45 46 46 46 46 46 46 46 46 44 45 44 44 44 44 44 43 43 43 43
Wind_Direction
254 254 254 253 253 253 253 253 252 249 248 248 249 250 250 251 252 253 254 253 252 250 250 249 247 247 248 249 250 251 249 248 246 243 244 245 248 251 253 253 252 251 248 244 241 239 239 237 237
255 255 254 254 254 255 256 255 252 250 249 249 249 250 250 249 252 253 254 253 252 251 251 250 249 248 248 249 250 252 250 249 250 248 247 249 252 253 253 253 253 253 249 246 244 242 242 240 242
255 255 254 254 254 257 258 256 254 251 250 250 249 249 250 249 251 252 253 253 252 251 251 250 250 249 249 249 250 251 251 250 250 250 251 253 254 253 253 254 255 253 250 247 245 245 246 246 247
255 254 254 254 255 256 258 257 254 251 250 250 250 249 249 250 250 251 253 253 252 251 251 250 250 250 249 250 250 251 251 252 253 254 254 254 255 255 255 255 255 254 251 248 246 248 250 251 251
254 254 254 254 255 255 256 255 254 253 253 251 252 251 249 248 249 250 252 253 252 251 251 251 250 251 251 251 252 252 253 254 255 255 256 256 256 255 256 257 256 254 253 251 248 248 251 253 254
256 255 255 255 255 255 255 256 255 254 253 252 252 251 250 249 249 249 251 252 252 252 251 252 252 251 252 253 253 253 254 255 256 255 255 256 255 255 255 256 255 254 254 254 251 250 252 254 256
257 256 256 256 255 255 255 255 254 254 253 251 251 252 251 250 250 250 250 251 252 252 253 253 253 252 253 254 255 253 254 256 256 257 256 256 256 255 255 255 255 255 255 255 255 254 253 254 256
258 257 257 256 256 256 255 254 253 253 253 252 252 251 251 251 250 250 251 251 252 253 253 253 254 253 253 253 255 254 254 255 256 257 257 257 256 256 256 256 256 256 256 256 257 256 255 256 257
258 258 258 257 257 257 256 255 253 252 253 253 252 252 251 251 251 251 253 253 253 253 253 253 253 253 252 253 254 255 255 255 256 256 256 256 256 256 257 256 256 256 256 257 258 258 257 258 258
258 259 258 258 258 258 257 255 255 253 252 252 252 251 251 251 252 251 253 254 254 254 254 254 254 254 254 254 254 255 256 256 256 255 255 255 254 255 257 257 256 256 256 257 258 259 259 259 259
258 259 258 258 258 258 257 256 255 255 254 253 252 253 252 252 253 253 253 254 254 254 254 254 254 253 254 255 255 256 256 257 256 255 254 253 253 254 256 257 256 256 257 258 259 259 260 260 260
259 259 258 258 258 258 258 257 257 256 255 255 254 254 253 253 254 254 254 254 254 254 254 254 254 254 254 254 255 256 257 257 256 255 255 253 253 253 254 256 256 257 257 257 258 259 260 261 261
260 260 259 260 259 258 257 257 258 257 257 256 255 254 254 254 255 255 254 254 254 254 254 255 255 255 254 254 255 256 257 256 255 255 255 254 254 253 253 254 256 257 257 258 259 259 260 261 261
261 261 260 260 260 259 258 258 258 257 257 256 255 255 255 254 255 255 254 254 253 254 254 254 255 255 255 255 255 256 256 255 255 254 254 254 253 254 254 254 256 257 257 257 259 259 260 261 260
262 262 261 260 260 260 259 258 258 258 258 256 256 256 256 255 255 255 255 254 253 253 253 254 254 254 254 254 254 255 256 255 254 253 253 253 253 254 255 255 256 257 258 259 259 259 259 261 261
264 264 262 261 261 261 260 259 259 258 258 257 256 256 256 256 256 256 255 254 254 254 254 253 253 252 253 253 254 255 255 254 253 253 254 254 254 253 254 255 256 257 258 259 260 260 259 260 262
265 265 264 262 261 262 261 260 258 258 258 258 257 257 256 256 256 256 255 255 254 254 254 253 252 252 252 252 253 254 254 254 253 253 253 254 255 254 255 255 256 257 258 259 260 261 261 260 261
267 267 266 264 262 263 262 259 258 258 259 259 258 257 257 256 257 256 256 255 255 254 253 252 252 251 251 252 252 253 253 254 253 253 253 254 254 255 255 256 257 259 259 260 261 261 262 262 262
268 267 267 265 263 264 263 260 259 260 259 260 259 258 258 257 256 256 255 255 255 254 253 252 252 251 251 251 252 253 252 253 253 253 253 253 254 256 256 256 258 259 259 259 260 260 261 262 263
267 267 267 266 265 265 264 262 261 262 261 261 261 260 258 257 256 256 255 255 254 254 254 252 251 252 251 250 251 251 251 251 251 251 252 253 254 255 256 256 257 257 258 258 259 261 261 262 262
267 267 267 267 266 266 266 264 263 263 262 262 261 260 259 258 256 256 256 255 255 254 253 252 252 252 250 249 249 250 251 251 251 253 253 253 254 255 255 256 256 256 257 258 259 260 261 262 262
267 266 267 268 268 267 268 268 264 264 263 263 262 260 259 258 257 256 256 256 255 254 253 252 251 249 248 248 248 249 251 251 251 253 253 254 255 256 256 255 256 257 257 258 259 260 261 261 261
269 269 269 268 268 268 268 269 267 266 264 263 261 259 258 258 258 257 256 256 256 254 253 252 250 248 246 247 247 249 250 250 250 251 252 254 255 256 257 256 256 257 258 258 259 260 261 261 261
270 269 268 268 269 269 270 271 270 268 266 262 260 259 259 258 257 257 257 258 256 255 253 251 249 247 245 245 247 249 249 250 251 251 252 253 255 256 256 256 256 257 259 260 260 260 261 262 261
270 269 270 271 271 272 273 273 273 270 267 263 261 261 260 258 257 258 258 259 257 255 252 249 248 246 245 246 248 250 250 250 250 250 252 253 255 256 256 256 257 258 259 259 260 260 261 261 261
271 270 271 273 275 276 275 275 274 272 268 264 262 261 261 259 259 260 261 260 257 255 253 250 247 246 245 246 248 249 249 250 250 251 253 254 255 255 255 255 256 256 257 259 259 260 261 261 261
273 271 272 274 276 278 278 277 276 272 269 266 265 263 263 262 263 264 263 260 258 256 253 251 248 245 245 246 247 248 249 249 250 251 252 253 254 254 253 254 255 256 257 258 259 259 261 262 262
276 276 274 273 276 280 280 279 278 273 269 269 269 268 266 266 267 266 264 262 260 257 254 251 247 245 246 246 248 248 249 250 250 251 251 251 253 252 252 254 255 257 257 258 259 260 260 262 262
276 276 276 275 275 278 281 281 278 274 270 269 270 271 270 268 268 267 265 265 262 257 253 250 246 246 248 249 249 249 250 251 251 250 251 250 250 252 254 254 254 255 256 257 258 259 260 261 263
279 279 278 278 278 277 279 281 279 279 276 274 274 274 272 270 270 268 266 264 261 256 252 250 249 248 249 249 249 249 250 250 250 250 250 250 250 251 254 255 254 254 255 256 257 259 260 261 263
Height
5805 5806 5808 5809 5811 5811 5813 5816 5817 5819 5821 5822 5824 5825 5827 5829 5830 5833 5832 5832 5834 5835 5836 5837 5837 5838 5840 5841 5842 5842 5843 5843 5844 5845 5845 5846 5847 5847 5848 5849 5849 5850 5850 5851 5851 5852 5853 5853 5854
5800 5801 5803 5804 5804 5806 5809 5810 5811 5814 5816 5818 5820 5821 5823 5824 5825 5827 5828 5829 5831 5832 5833 5834 5835 5836 5837 5838 5839 5840 5840 5841 5842 5842 5843 5844 5845 5845 5846 5847 5847 5848 5849 5849 5850 5850 5851 5852 5852
5795 5796 5798 5798 5799 5802 5804 5805 5806 5808 5810 5812 5815 5817 5818 5820 5822 5823 5824 5825 5827 5829 5830 5830 5832 5832 5834 5835 5836 5837 5837 5838 5839 5840 5840 5841 5842 5843 5843 5844 5845 5845 5846 5847 5847 5848 5849 5850 5850
5790 5791 5792 5793 5794 5797 5799 5800 5800 5802 5805 5807 5809 5811 5813 5815 5817 5819 5820 5821 5823 5825 5826 5827 5828 5829 5830 5831 5832 5833 5834 5835 5836 5837 5837 5838 5839 5839 5840 5841 5842 5842 5843 5844 5845 5846 5847 5847 5848
5783 5784 5785 5787 5789 5792 5793 5794 5796 5797 5799 5801 5803 5805 5808 5810 5812 5814 5815 5816 5818 5820 5822 5823 5824 5825 5826 5827 5828 5829 5830 5831 5832 5833 5834 5834 5835 5836 5837 5838 5839 5839 5840 5841 5842 5843 5844 5845 5845
5777 5778 5779 5781 5784 5786 5788 5789 5790 5791 5793 5795 5797 5799 5802 5804 5806 5809 5810 5811 5813 5815 5817 5818 5819 5821 5822 5823 5824 5825 5826 5827 5828 5829 5830 5830 5831 5832 5833 5834 5835 5836 5837 5838 5839 5840 5840 5841 5842
5771 5771 5773 5775 5777 5779 5781 5783 5784 5785 5786 5789 5791 5793 5796 5798 5801 5802 5804 5805 5807 5809 5811 5813 5814 5816 5817 5818 5819 5820 5821 5822 5824 5824 5825 5826 5827 5828 5829 5830 5831 5832 5833 5834 5835 5836 5837 5837 5838
5763 5765 5766 5769 5770 5772 5774 5776 5777 5778 5780 5782 5784 5786 5789 5792 5794 5796 5797 5799 5801 5803 5805 5807 5809 5810 5811 5813 5814 5815 5816 5817 5818 5819 5820 5821 5822 5823 5824 5826 5827 5828 5829 5830 5831 5832 5833 5833 5834
5755 5758 5759 5762 5763 5764 5767 5768 5770 5771 5773 5776 5778 5780 5782 5784 5786 5789 5791 5793 5795 5797 5799 5801 5802 5804 5805 5807 5808 5809 5810 5811 5812 5814 5815 5816 5817 5818 5820 5821 5822 5823 5824 5825 5826 5827 5828 5829 5830
5748 5750 5753 5755 5755 5756 5758 5760 5762 5764 5766 5768 5770 5772 5774 5776 5779 5782 5784 5786 5788 5790 5792 5793 5795 5797 5799 5800 5802 5803 5804 5805 5806 5808 5809 5810 5812 5813 5815 5816 5817 5818 5820 5821 5822 5823 5823 5824 5825
5741 5742 5745 5746 5746 5747 5749 5751 5753 5755 5758 5761 5762 5765 5766 5769 5771 5774 5776 5778 5780 5782 5784 5786 5788 5789 5791 5793 5794 5796 5797 5799 5800 5801 5803 5804 5806 5808 5809 5810 5812 5813 5814 5815 5816 5817 5818 5819 5820
5733 5735 5736 5738 5738 5739 5741 5743 5744 5747 5750 5752 5754 5756 5758 5760 5763 5765 5768 5770 5772 5774 5776 5778 5780 5782 5783 5785 5787 5788 5790 5791 5793 5794 5796 5797 5799 5801 5803 5805 5806 5807 5808 5810 5811 5812 5813 5814 5815
5725 5726 5727 5729 5730 5730 5732 5733 5735 5738 5741 5742 5744 5746 5749 5751 5754 5756 5758 5760 5763 5765 5767 5769 5771 5773 5775 5777 5779 5780 5782 5783 5785 5787 5788 5790 5792 5794 5796 5798 5799 5801 5802 5803 5804 5806 5807 5808 5809
5716 5717 5719 5720 5720 5721 5722 5724 5725 5729 5730 5732 5734 5736 5739 5741 5743 5746 5748 5750 5753 5755 5757 5760 5762 5764 5766 5768 5770 5771 5773 5775 5777 5779 5781 5783 5785 5787 5789 5791 5792 5793 5795 5796 5797 5799 5800 5801 5802
5707 5708 5709 5710 5711 5712 5712 5713 5716 5719 5720 5721 5723 5726 5729 5731 5732 5735 5737 5739 5742 5744 5747 5750 5752 5754 5756 5758 5761 5762 5764 5766 5768 5770 5772 5774 5777 5779 5781 5783 5785 5786 5787 5789 5790 5791 5793 5794 5795
5697 5697 5699 5701 5701 5701 5702 5703 5707 5707 5708 5710 5713 5715 5717 5719 5721 5724 5725 5728 5730 5733 5736 5739 5741 5743 5746 5748 5751 5753 5755 5757 5759 5762 5764 5766 5768 5771 5773 5775 5777 5778 5780 5781 5783 5784 5785 5787 5788
5687 5687 5688 5690 5690 5690 5690 5692 5696 5696 5697 5699 5701 5704 5706 5708 5710 5712 5713 5716 5719 5722 5724 5727 5729 5733 5735 5738 5740 5743 5745 5747 5750 5752 5755 5757 5759 5762 5764 5766 5768 5770 5771 5773 5775 5776 5777 5779 5780
5677 5677 5677 5678 5679 5678 5678 5681 5684 5685 5686 5688 5690 5692 5694 5696 5698 5700 5702 5704 5707 5710 5712 5715 5718 5721 5724 5727 5730 5732 5735 5737 5740 5743 5745 5748 5750 5752 5755 5757 5759 5761 5763 5765 5766 5768 5769 5771 5772
5667 5666 5667 5667 5667 5667 5668 5670 5673 5674 5675 5677 5678 5680 5682 5684 5686 5688 5690 5693 5695 5698 5700 5703 5706 5710 5713 5716 5719 5722 5725 5728 5730 5733 5735 5737 5740 5743 5745 5747 5749 5751 5753 5755 5757 5759 5761 5762 5763
5657 5657 5657 5657 5657 5657 5657 5659 5662 5663 5664 5666 5667 5669 5671 5673 5675 5677 5679 5681 5684 5686 5689 5691 5695 5698 5702 5705 5709 5711 5714 5717 5719 5722 5725 5728 5730 5732 5735 5737 5739 5741 5743 5746 5748 5750 5751 5753 5754
5648 5648 5648 5648 5648 5647 5648 5650 5652 5653 5653 5655 5656 5658 5659 5661 5663 5665 5667 5670 5672 5674 5677 5680 5683 5686 5690 5693 5697 5699 5702 5705 5709 5712 5715 5717 5720 5722 5725 5727 5729 5731 5734 5736 5738 5740 5742 5743 5745
5639 5640 5639 5639 5639 5639 5639 5638 5643 5643 5643 5644 5646 5647 5648 5650 5652 5654 5656 5658 5661 5663 5665 5668 5671 5674 5678 5681 5685 5688 5691 5695 5699 5701 5704 5707 5709 5712 5714 5717 5719 5721 5723 5726 5728 5729 5731 5733 5734
5632 5632 5631 5630 5629 5630 5630 5629 5633 5632 5633 5634 5635 5636 5638 5639 5641 5643 5645 5647 5649 5651 5654 5656 5659 5662 5666 5670 5673 5677 5680 5683 5687 5690 5693 5696 5698 5701 5703 5706 5709 5711 5713 5715 5717 5719 5721 5723 5724
5624 5624 5623 5622 5621 5621 5622 5620 5622 5623 5623 5624 5625 5626 5627 5629 5630 5631 5633 5634 5637 5639 5641 5644 5647 5650 5654 5658 5662 5665 5668 5672 5675 5678 5682 5685 5687 5690 5692 5695 5698 5701 5703 5705 5707 5709 5710 5712 5714
5616 5616 5615 5613 5613 5613 5614 5612 5613 5614 5614 5615 5616 5616 5617 5618 5619 5620 5621 5623 5625 5626 5628 5632 5635 5639 5643 5647 5650 5654 5657 5660 5664 5667 5670 5673 5676 5679 5682 5684 5687 5690 5692 5694 5696 5698 5699 5701 5703
5609 5608 5608 5607 5606 5606 5606 5604 5606 5605 5605 5605 5606 5607 5607 5608 5609 5609 5610 5611 5612 5614 5617 5620 5623 5627 5631 5636 5639 5642 5645 5648 5652 5655 5658 5662 5665 5668 5671 5673 5676 5678 5680 5682 5685 5687 5688 5690 5692
5601 5601 5601 5600 5598 5598 5598 5598 5598 5597 5597 5597 5597 5597 5598 5598 5599 5599 5599 5599 5600 5602 5604 5607 5611 5616 5620 5624 5628 5631 5634 5637 5640 5643 5646 5650 5653 5656 5659 5661 5664 5667 5669 5671 5673 5675 5677 5679 5681
5595 5594 5594 5592 5591 5590 5590 5591 5591 5590 5589 5589 5588 5588 5589 5589 5589 5589 5588 5589 5589 5590 5592 5595 5599 5604 5608 5612 5615 5619 5622 5625 5628 5631 5634 5638 5641 5644 5647 5650 5653 5655 5658 5660 5662 5664 5666 5668 5670
5589 5588 5586 5585 5584 5583 5583 5586 5583 5582 5581 5581 5580 5580 5580 5579 5579 5579 5579 5579 5578 5579 5581 5584 5588 5592 5596 5600 5604 5607 5611 5614 5617 5619 5623 5626 5629 5632 5635 5638 5641 5644 5646 5649 5651 5653 5655 5657 5659
5582 5581 5580 5580 5578 5577 5576 5580 5576 5575 5573 5573 5572 5571 5571 5571 5570 5570 5569 5569 5569 5570 5572 5574 5577 5580 5584 5588 5592 5596 5599 5602 5605 5608 5611 5614 5617 5621 5624 5626 5629 5632 5635 5638 5640 5643 5645 5646 5648